Details From LFBD - Bordeaux Merignac
To LFBP - Pau Pyrenees
Flight Number -
Tags decoded
Created
Modified
Stats Distance 142 nm / 263 km
Max Altitude 0 ft / 0 m
Waypoints 5
Social Downloads 3
Likes 0
Share VATSIM

Download

Looking for another format? Having issues loading an existing format? Contact us
Advertisement - Login to hide

Notes

Requested: LFBD ENSAC UP181 MAGEC R10 BTZ LFBP Unmatched points: UP181

Route

LFBD ENSAC MAGEC R10 BTZ LFBP

ID Type Via Altitude Latitude Longitude Leg Dist Tot Dist Heading (true) Name
O LFBD APT - 0 ft / 0 m 44.82876˚ -0.71476˚ - 0 nm - Bordeaux Merignac
ENSAC FIX - 0 ft / 0 m 44.20000˚ -0.69028˚ 37 nm 37 nm 178° / 178° -
MAGEC FIX - 0 ft / 0 m 43.74833˚ -1.19583˚ 34 nm 72 nm 219° / 219° -
BTZ VOR R10 (AWY-LO) 0 ft / 0 m 43.46664˚ -1.51028˚ 21 nm 94 nm 219° / 219° BIARRITZ BAYONNE ANGLET VOR-DM
O LFBP APT - 0 ft / 0 m 43.38108˚ -0.42075˚ 47 nm 142 nm 96° / 97° Pau Pyrenees

Altitude Profile

Advertisement - Login to hide

LFBD

Details ICAO LFBD (BOD)
Name Bordeaux Merignac
Region France
Timezone Europe/Paris (UTC+2.0)
Stats Elevation 166 ft / 51 m (AMSL)
Location 44.828762° -0.714755°
Runways 2
Magnetic Variation 0.022° W

METAR

LFBD 232030Z AUTO 31005KT 290V350 CAVOK 14/12 Q1022 NOSIG

Decode

TAF

TAF LFBD 231700Z 2318/2424 30005KT 9999 BKN025 PROB30 TEMPO 2402/2408 BKN007 TX25/2415Z TN13/2405Z

Decode

Departure Runways

ID Width Length Bearing (true) Bearing (mag) Surface Threshold Offset Overrun Length
05 148 ft / 45 m 10,164 ft / 3,098 m 45.48° 45.50° Asphalt 26 ft / 8 m 1,145 ft / 349 m
11 148 ft / 45 m 7,931 ft / 2,417 m 106.45° 106.47° Asphalt 26 ft / 8 m 1,198 ft / 365 m
23 148 ft / 45 m 10,164 ft / 3,098 m 225.50° 225.52° Asphalt 39 ft / 12 m 1,266 ft / 386 m
29 148 ft / 45 m 7,931 ft / 2,417 m 286.47° 286.49° Asphalt 33 ft / 10 m 1,201 ft / 366 m

LFBP

Details ICAO LFBP (PUF)
Name Pau Pyrenees
Region France
Timezone Europe/Paris (UTC+2.0)
Stats Elevation 616 ft / 188 m (AMSL)
Location 43.381078° -0.420752°
Runways 1
Magnetic Variation 0.137° E

METAR

LFBP 232030Z AUTO 30007KT 9999 BKN024 17/15 Q1021 BECMG OVC010

Decode

TAF

TAF LFBP 231700Z 2318/2418 VRB03KT 9999 BKN030 BECMG 2321/2323 OVC010 BECMG 2410/2412 06005KT CAVOK

Decode

Destination Runways

ID Width Length Bearing (true) Bearing (mag) Surface Threshold Offset Overrun Length
13 148 ft / 45 m 8,191 ft / 2,497 m 125.89° 125.75° Asphalt 0 ft / 0 m 0 ft / 0 m
31 148 ft / 45 m 8,191 ft / 2,497 m 305.90° 305.76° Asphalt 0 ft / 0 m 0 ft / 0 m

Approach Navaids

Runway Type Ident Frequency Range Bearing (true) Bearing (mag) Slope Elevation
31 Localiser PU 110.10 MHz 18 nm / 33 km 305.89° 305.75° - 576 ft / 176 m (AMSL)
31 Glidescope PU 110.10 MHz 10 nm / 19 km 305.90° 305.76° 3.00° 676 ft / 206 m (AMSL)
31 DME PU 110.10 MHz 18 nm / 33 km - - - 608 ft / 185 m (AMSL)

Popular Alternatives